Year,Month,Day,Hour,Minute,Value (Times are PST for insolation in W/m^2)
2018,07,07,00,00,0.00
2018,07,07,00,01,0.00
2018,07,07,00,02,0.00
2018,07,07,00,03,0.00
2018,07,07,00,04,0.00
2018,07,07,00,05,0.00
2018,07,07,00,06,0.00
2018,07,07,00,07,0.00
2018,07,07,00,08,0.00
2018,07,07,00,09,0.00
2018,07,07,00,10,0.00
2018,07,07,00,11,0.00
2018,07,07,00,12,0.00
2018,07,07,00,13,0.00
2018,07,07,00,14,0.00
2018,07,07,00,15,0.00
2018,07,07,00,16,0.00
2018,07,07,00,17,0.00
2018,07,07,00,18,0.00
2018,07,07,00,19,0.00
2018,07,07,00,20,0.00
2018,07,07,00,21,0.00
2018,07,07,00,22,0.00
2018,07,07,00,23,0.00
2018,07,07,00,24,0.00
2018,07,07,00,25,0.00
2018,07,07,00,26,0.00
2018,07,07,00,27,0.00
2018,07,07,00,28,0.00
2018,07,07,00,29,0.00
2018,07,07,00,30,0.00
2018,07,07,00,31,0.00
2018,07,07,00,32,0.00
2018,07,07,00,33,0.00
2018,07,07,00,34,0.00
2018,07,07,00,35,0.00
2018,07,07,00,36,0.00
2018,07,07,00,37,0.00
2018,07,07,00,38,0.00
2018,07,07,00,39,0.00
2018,07,07,00,40,0.00
2018,07,07,00,41,0.00
2018,07,07,00,42,0.00
2018,07,07,00,43,0.00
2018,07,07,00,44,0.00
2018,07,07,00,45,0.00
2018,07,07,00,46,0.00
2018,07,07,00,47,0.00
2018,07,07,00,48,0.00
2018,07,07,00,49,0.00
2018,07,07,00,50,0.00
2018,07,07,00,51,0.00
2018,07,07,00,52,0.00
2018,07,07,00,53,0.00
2018,07,07,00,54,0.00
2018,07,07,00,55,0.00
2018,07,07,00,56,0.00
2018,07,07,00,57,0.00
2018,07,07,00,58,0.00
2018,07,07,00,59,0.00
2018,07,07,01,00,0.00
2018,07,07,01,01,0.00
2018,07,07,01,02,0.00
2018,07,07,01,03,0.00
2018,07,07,01,04,0.00
2018,07,07,01,05,0.00
2018,07,07,01,06,0.00
2018,07,07,01,07,0.00
2018,07,07,01,08,0.00
2018,07,07,01,09,0.00
2018,07,07,01,10,0.00
2018,07,07,01,11,0.00
2018,07,07,01,12,0.00
2018,07,07,01,13,0.00
2018,07,07,01,14,0.00
2018,07,07,01,15,0.00
2018,07,07,01,16,0.00
2018,07,07,01,17,0.00
2018,07,07,01,18,0.00
2018,07,07,01,19,0.00
2018,07,07,01,20,0.00
2018,07,07,01,21,0.00
2018,07,07,01,22,0.00
2018,07,07,01,23,0.00
2018,07,07,01,24,0.00
2018,07,07,01,25,0.00
2018,07,07,01,26,0.00
2018,07,07,01,27,0.00
2018,07,07,01,28,0.00
2018,07,07,01,29,0.00
2018,07,07,01,30,0.00
2018,07,07,01,31,0.00
2018,07,07,01,32,0.00
2018,07,07,01,33,0.00
2018,07,07,01,34,0.00
2018,07,07,01,35,0.00
2018,07,07,01,36,0.00
2018,07,07,01,37,0.00
2018,07,07,01,38,0.00
2018,07,07,01,39,0.00
2018,07,07,01,40,0.00
2018,07,07,01,41,0.00
2018,07,07,01,42,0.00
2018,07,07,01,43,0.00
2018,07,07,01,44,0.00
2018,07,07,01,45,0.00
2018,07,07,01,46,0.00
2018,07,07,01,47,0.00
2018,07,07,01,48,0.00
2018,07,07,01,49,0.00
2018,07,07,01,50,0.00
2018,07,07,01,51,0.00
2018,07,07,01,52,0.00
2018,07,07,01,53,0.00
2018,07,07,01,54,0.00
2018,07,07,01,55,0.00
2018,07,07,01,56,0.00
2018,07,07,01,57,0.00
2018,07,07,01,58,0.00
2018,07,07,01,59,0.00
2018,07,07,02,00,0.00
2018,07,07,02,01,0.00
2018,07,07,02,02,0.00
2018,07,07,02,03,0.00
2018,07,07,02,04,0.00
2018,07,07,02,05,0.00
2018,07,07,02,06,0.00
2018,07,07,02,07,0.00
2018,07,07,02,08,0.00
2018,07,07,02,09,0.00
2018,07,07,02,10,0.00
2018,07,07,02,11,0.00
2018,07,07,02,12,0.00
2018,07,07,02,13,0.00
2018,07,07,02,14,0.00
2018,07,07,02,15,0.00
2018,07,07,02,16,0.00
2018,07,07,02,17,0.00
2018,07,07,02,18,0.00
2018,07,07,02,19,0.00
2018,07,07,02,20,0.00
2018,07,07,02,21,0.00
2018,07,07,02,22,0.00
2018,07,07,02,23,0.00
2018,07,07,02,24,0.00
2018,07,07,02,25,0.00
2018,07,07,02,26,0.00
2018,07,07,02,27,0.00
2018,07,07,02,28,0.00
2018,07,07,02,29,0.00
2018,07,07,02,30,0.00
2018,07,07,02,31,0.00
2018,07,07,02,32,0.00
2018,07,07,02,33,0.00
2018,07,07,02,34,0.00
2018,07,07,02,35,0.00
2018,07,07,02,36,0.00
2018,07,07,02,37,0.00
2018,07,07,02,38,0.00
2018,07,07,02,39,0.00
2018,07,07,02,40,0.00
2018,07,07,02,41,0.00
2018,07,07,02,42,0.00
2018,07,07,02,43,0.00
2018,07,07,02,44,0.00
2018,07,07,02,45,0.00
2018,07,07,02,46,0.00
2018,07,07,02,47,0.00
2018,07,07,02,48,0.00
2018,07,07,02,49,0.00
2018,07,07,02,50,0.00
2018,07,07,02,51,0.00
2018,07,07,02,52,0.00
2018,07,07,02,53,0.00
2018,07,07,02,54,0.00
2018,07,07,02,55,0.00
2018,07,07,02,56,0.00
2018,07,07,02,57,0.00
2018,07,07,02,58,0.00
2018,07,07,02,59,0.00
2018,07,07,03,00,0.00
2018,07,07,03,01,0.00
2018,07,07,03,02,0.00
2018,07,07,03,03,0.00
2018,07,07,03,04,0.00
2018,07,07,03,05,0.00
2018,07,07,03,06,0.00
2018,07,07,03,07,0.00
2018,07,07,03,08,0.00
2018,07,07,03,09,0.00
2018,07,07,03,10,0.00
2018,07,07,03,11,0.00
2018,07,07,03,12,0.00
2018,07,07,03,13,0.00
2018,07,07,03,14,0.00
2018,07,07,03,15,0.00
2018,07,07,03,16,0.00
2018,07,07,03,17,0.00
2018,07,07,03,18,0.00
2018,07,07,03,19,0.00
2018,07,07,03,20,0.00
2018,07,07,03,21,0.00
2018,07,07,03,22,0.00
2018,07,07,03,23,0.00
2018,07,07,03,24,0.00
2018,07,07,03,25,0.00
2018,07,07,03,26,0.00
2018,07,07,03,27,0.00
2018,07,07,03,28,0.00
2018,07,07,03,29,0.00
2018,07,07,03,30,0.00
2018,07,07,03,31,0.00
2018,07,07,03,32,0.00
2018,07,07,03,33,0.00
2018,07,07,03,34,0.00
2018,07,07,03,35,0.00
2018,07,07,03,36,0.00
2018,07,07,03,37,0.00
2018,07,07,03,38,0.00
2018,07,07,03,39,0.00
2018,07,07,03,40,0.00
2018,07,07,03,41,0.00
2018,07,07,03,42,0.00
2018,07,07,03,43,0.00
2018,07,07,03,44,0.00
2018,07,07,03,45,0.00
2018,07,07,03,46,0.00
2018,07,07,03,47,0.00
2018,07,07,03,48,0.00
2018,07,07,03,49,0.00
2018,07,07,03,50,0.00
2018,07,07,03,51,0.00
2018,07,07,03,52,0.00
2018,07,07,03,53,0.00
2018,07,07,03,54,0.00
2018,07,07,03,55,0.00
2018,07,07,03,56,0.00
2018,07,07,03,57,0.00
2018,07,07,03,58,0.00
2018,07,07,03,59,0.00
2018,07,07,04,00,0.00
2018,07,07,04,01,0.00
2018,07,07,04,02,0.00
2018,07,07,04,03,0.00
2018,07,07,04,04,0.00
2018,07,07,04,05,0.00
2018,07,07,04,06,0.00
2018,07,07,04,07,0.00
2018,07,07,04,08,0.00
2018,07,07,04,09,0.00
2018,07,07,04,10,0.00
2018,07,07,04,11,0.00
2018,07,07,04,12,0.00
2018,07,07,04,13,0.00
2018,07,07,04,14,0.00
2018,07,07,04,15,0.00
2018,07,07,04,16,0.00
2018,07,07,04,17,0.00
2018,07,07,04,18,0.00
2018,07,07,04,19,0.00
2018,07,07,04,20,0.00
2018,07,07,04,21,0.00
2018,07,07,04,22,0.00
2018,07,07,04,23,0.00
2018,07,07,04,24,0.00
2018,07,07,04,25,0.00
2018,07,07,04,26,0.00
2018,07,07,04,27,0.00
2018,07,07,04,28,0.00
2018,07,07,04,29,0.00
2018,07,07,04,30,0.00
2018,07,07,04,31,0.00
2018,07,07,04,32,0.00
2018,07,07,04,33,0.00
2018,07,07,04,34,0.00
2018,07,07,04,35,0.00
2018,07,07,04,36,0.00
2018,07,07,04,37,0.00
2018,07,07,04,38,0.00
2018,07,07,04,39,0.00
2018,07,07,04,40,0.00
2018,07,07,04,41,0.00
2018,07,07,04,42,0.00
2018,07,07,04,43,0.00
2018,07,07,04,44,0.00
2018,07,07,04,45,0.00
2018,07,07,04,46,0.00
2018,07,07,04,47,0.00
2018,07,07,04,48,0.00
2018,07,07,04,49,0.00
2018,07,07,04,50,0.00
2018,07,07,04,51,0.00
2018,07,07,04,52,0.00
2018,07,07,04,53,0.00
2018,07,07,04,54,0.00
2018,07,07,04,55,0.00
2018,07,07,04,56,0.00
2018,07,07,04,57,0.00
2018,07,07,04,58,0.00
2018,07,07,04,59,0.00
2018,07,07,05,00,0.00
2018,07,07,05,01,0.00
2018,07,07,05,02,0.00
2018,07,07,05,03,0.00
2018,07,07,05,04,0.00
2018,07,07,05,05,0.00
2018,07,07,05,06,0.00
2018,07,07,05,07,0.00
2018,07,07,05,08,0.00
2018,07,07,05,09,0.00
2018,07,07,05,10,0.00
2018,07,07,05,11,0.00
2018,07,07,05,12,0.00
2018,07,07,05,13,0.00
2018,07,07,05,14,0.00
2018,07,07,05,15,0.00
2018,07,07,05,16,0.00
2018,07,07,05,17,0.00
2018,07,07,05,18,0.00
2018,07,07,05,19,0.00
2018,07,07,05,20,0.00
2018,07,07,05,21,0.00
2018,07,07,05,22,0.00
2018,07,07,05,23,0.00
2018,07,07,05,24,0.00
2018,07,07,05,25,0.00
2018,07,07,05,26,0.00
2018,07,07,05,27,0.00
2018,07,07,05,28,0.00
2018,07,07,05,29,0.00
2018,07,07,05,30,0.00
2018,07,07,05,31,0.00
2018,07,07,05,32,0.00
2018,07,07,05,33,0.00
2018,07,07,05,34,0.00
2018,07,07,05,35,0.00
2018,07,07,05,36,0.00
2018,07,07,05,37,0.00
2018,07,07,05,38,0.00
2018,07,07,05,39,3.00
2018,07,07,05,40,5.00
2018,07,07,05,41,5.00
2018,07,07,05,42,5.00
2018,07,07,05,43,5.00
2018,07,07,05,44,5.40
2018,07,07,05,45,7.00
2018,07,07,05,46,7.00
2018,07,07,05,47,7.00
2018,07,07,05,48,8.30
2018,07,07,05,49,9.00
2018,07,07,05,50,10.70
2018,07,07,05,51,11.00
2018,07,07,05,52,11.00
2018,07,07,05,53,11.00
2018,07,07,05,54,11.40
2018,07,07,05,55,12.00
2018,07,07,05,56,12.00
2018,07,07,05,57,13.40
2018,07,07,05,58,14.00
2018,07,07,05,59,14.00
2018,07,07,06,00,16.00
2018,07,07,06,01,16.40
2018,07,07,06,02,18.30
2018,07,07,06,03,20.60
2018,07,07,06,04,25.50
2018,07,07,06,05,32.20
2018,07,07,06,06,36.40
2018,07,07,06,07,39.40
2018,07,07,06,08,41.90
2018,07,07,06,09,44.50
2018,07,07,06,10,47.50
2018,07,07,06,11,49.70
2018,07,07,06,12,52.30
2018,07,07,06,13,54.00
2018,07,07,06,14,50.80
2018,07,07,06,15,37.80
2018,07,07,06,16,32.30
2018,07,07,06,17,30.10
2018,07,07,06,18,30.00
2018,07,07,06,19,30.00
2018,07,07,06,20,30.00
2018,07,07,06,21,30.00
2018,07,07,06,22,31.10
2018,07,07,06,23,32.70
2018,07,07,06,24,33.00
2018,07,07,06,25,34.90
2018,07,07,06,26,35.00
2018,07,07,06,27,35.00
2018,07,07,06,28,35.00
2018,07,07,06,29,35.00
2018,07,07,06,30,35.00
2018,07,07,06,31,35.00
2018,07,07,06,32,35.00
2018,07,07,06,33,33.30
2018,07,07,06,34,33.00
2018,07,07,06,35,33.00
2018,07,07,06,36,33.00
2018,07,07,06,37,33.00
2018,07,07,06,38,33.90
2018,07,07,06,39,35.00
2018,07,07,06,40,35.00
2018,07,07,06,41,35.00
2018,07,07,06,42,35.00
2018,07,07,06,43,35.00
2018,07,07,06,44,35.00
2018,07,07,06,45,35.00
2018,07,07,06,46,35.00
2018,07,07,06,47,35.00
2018,07,07,06,48,36.20
2018,07,07,06,49,37.00
2018,07,07,06,50,37.00
2018,07,07,06,51,37.00
2018,07,07,06,52,37.30
2018,07,07,06,53,39.30
2018,07,07,06,54,40.00
2018,07,07,06,55,40.90
2018,07,07,06,56,43.10
2018,07,07,06,57,44.00
2018,07,07,06,58,45.50
2018,07,07,06,59,46.00
2018,07,07,07,00,46.00
2018,07,07,07,01,46.00
2018,07,07,07,02,46.00
2018,07,07,07,03,46.00
2018,07,07,07,04,46.00
2018,07,07,07,05,46.00
2018,07,07,07,06,44.60
2018,07,07,07,07,44.00
2018,07,07,07,08,44.10
2018,07,07,07,09,46.00
2018,07,07,07,10,46.20
2018,07,07,07,11,47.60
2018,07,07,07,12,49.00
2018,07,07,07,13,50.00
2018,07,07,07,14,52.30
2018,07,07,07,15,53.80
2018,07,07,07,16,54.00
2018,07,07,07,17,56.00
2018,07,07,07,18,58.80
2018,07,07,07,19,62.30
2018,07,07,07,20,63.80
2018,07,07,07,21,65.90
2018,07,07,07,22,68.70
2018,07,07,07,23,71.40
2018,07,07,07,24,73.60
2018,07,07,07,25,75.80
2018,07,07,07,26,77.60
2018,07,07,07,27,81.40
2018,07,07,07,28,83.30
2018,07,07,07,29,85.60
2018,07,07,07,30,89.50
2018,07,07,07,31,93.40
2018,07,07,07,32,97.20
2018,07,07,07,33,99.60
2018,07,07,07,34,103.80
2018,07,07,07,35,105.30
2018,07,07,07,36,107.60
2018,07,07,07,37,109.70
2018,07,07,07,38,111.00
2018,07,07,07,39,111.00
2018,07,07,07,40,109.70
2018,07,07,07,41,107.40
2018,07,07,07,42,104.30
2018,07,07,07,43,102.30
2018,07,07,07,44,104.60
2018,07,07,07,45,108.80
2018,07,07,07,46,115.00
2018,07,07,07,47,119.50
2018,07,07,07,48,123.40
2018,07,07,07,49,127.20
2018,07,07,07,50,131.40
2018,07,07,07,51,133.90
2018,07,07,07,52,137.30
2018,07,07,07,53,139.80
2018,07,07,07,54,142.70
2018,07,07,07,55,144.80
2018,07,07,07,56,147.00
2018,07,07,07,57,150.00
2018,07,07,07,58,152.60
2018,07,07,07,59,155.60
2018,07,07,08,00,162.20
2018,07,07,08,01,166.10
2018,07,07,08,02,172.80
2018,07,07,08,03,181.50
2018,07,07,08,04,190.50
2018,07,07,08,05,203.80
2018,07,07,08,06,215.80
2018,07,07,08,07,222.00
2018,07,07,08,08,244.80
2018,07,07,08,09,302.40
2018,07,07,08,10,367.20
2018,07,07,08,11,436.60
2018,07,07,08,12,426.00
2018,07,07,08,13,366.00
2018,07,07,08,14,297.30
2018,07,07,08,15,251.20
2018,07,07,08,16,252.50
2018,07,07,08,17,260.90
2018,07,07,08,18,246.40
2018,07,07,08,19,238.20
2018,07,07,08,20,241.00
2018,07,07,08,21,240.10
2018,07,07,08,22,237.40
2018,07,07,08,23,238.10
2018,07,07,08,24,237.50
2018,07,07,08,25,228.50
2018,07,07,08,26,224.90
2018,07,07,08,27,223.00
2018,07,07,08,28,221.50
2018,07,07,08,29,220.80
2018,07,07,08,30,223.00
2018,07,07,08,31,216.80
2018,07,07,08,32,213.30
2018,07,07,08,33,208.20
2018,07,07,08,34,204.20
2018,07,07,08,35,201.70
2018,07,07,08,36,200.00
2018,07,07,08,37,200.00
2018,07,07,08,38,200.00
2018,07,07,08,39,201.10
2018,07,07,08,40,202.00
2018,07,07,08,41,203.50
2018,07,07,08,42,205.80
2018,07,07,08,43,209.00
2018,07,07,08,44,209.40
2018,07,07,08,45,212.30
2018,07,07,08,46,217.90
2018,07,07,08,47,224.00
2018,07,07,08,48,231.20
2018,07,07,08,49,240.80
2018,07,07,08,50,247.00
2018,07,07,08,51,245.90
2018,07,07,08,52,241.00
2018,07,07,08,53,241.40
2018,07,07,08,54,243.90
2018,07,07,08,55,246.80
2018,07,07,08,56,249.50
2018,07,07,08,57,255.20
2018,07,07,08,58,263.20
2018,07,07,08,59,270.90
2018,07,07,09,00,287.00
2018,07,07,09,01,341.30
2018,07,07,09,02,364.50
2018,07,07,09,03,374.40
2018,07,07,09,04,362.00
2018,07,07,09,05,362.00
2018,07,07,09,06,316.70
2018,07,07,09,07,298.00
2018,07,07,09,08,308.00
2018,07,07,09,09,312.40
2018,07,07,09,10,343.00
2018,07,07,09,11,343.00
2018,07,07,09,12,371.00
2018,07,07,09,13,449.80
2018,07,07,09,14,439.80
2018,07,07,09,15,411.00
2018,07,07,09,16,411.00
2018,07,07,09,17,388.70
2018,07,07,09,18,457.50
2018,07,07,09,19,396.20
2018,07,07,09,20,401.00
2018,07,07,09,21,379.50
2018,07,07,09,22,332.10
2018,07,07,09,23,298.70
2018,07,07,09,24,350.60
2018,07,07,09,25,435.10
2018,07,07,09,26,362.00
2018,07,07,09,27,390.80
2018,07,07,09,28,513.00
2018,07,07,09,29,513.00
2018,07,07,09,30,513.00
2018,07,07,09,31,505.80
2018,07,07,09,32,529.00
2018,07,07,09,33,465.00
2018,07,07,09,34,420.80
2018,07,07,09,35,390.10
2018,07,07,09,36,370.40
2018,07,07,09,37,355.90
2018,07,07,09,38,348.00
2018,07,07,09,39,343.90
2018,07,07,09,40,341.70
2018,07,07,09,41,335.80
2018,07,07,09,42,323.80
2018,07,07,09,43,305.70
2018,07,07,09,44,294.40
2018,07,07,09,45,292.00
2018,07,07,09,46,293.00
2018,07,07,09,47,296.90
2018,07,07,09,48,300.60
2018,07,07,09,49,306.50
2018,07,07,09,50,319.40
2018,07,07,09,51,339.00
2018,07,07,09,52,335.80
2018,07,07,09,53,349.20
2018,07,07,09,54,333.50
2018,07,07,09,55,323.80
2018,07,07,09,56,320.00
2018,07,07,09,57,316.70
2018,07,07,09,58,320.40
2018,07,07,09,59,328.50
2018,07,07,10,00,333.90
2018,07,07,10,01,334.40
2018,07,07,10,02,322.80
2018,07,07,10,03,315.10
2018,07,07,10,04,314.30
2018,07,07,10,05,319.90
2018,07,07,10,06,327.50
2018,07,07,10,07,337.20
2018,07,07,10,08,350.70
2018,07,07,10,09,367.90
2018,07,07,10,10,385.00
2018,07,07,10,11,385.90
2018,07,07,10,12,395.20
2018,07,07,10,13,423.50
2018,07,07,10,14,441.00
2018,07,07,10,15,508.90
2018,07,07,10,16,538.00
2018,07,07,10,17,1015.50
2018,07,07,10,18,1051.00
2018,07,07,10,19,1051.00
2018,07,07,10,20,1041.20
2018,07,07,10,21,1014.50
2018,07,07,10,22,980.90
2018,07,07,10,23,966.30
2018,07,07,10,24,922.50
2018,07,07,10,25,838.20
2018,07,07,10,26,842.50
2018,07,07,10,27,833.00
2018,07,07,10,28,816.80
2018,07,07,10,29,777.60
2018,07,07,10,30,775.00
2018,07,07,10,31,449.20
2018,07,07,10,32,217.30
2018,07,07,10,33,201.30
2018,07,07,10,34,190.90
2018,07,07,10,35,182.30
2018,07,07,10,36,175.00
2018,07,07,10,37,169.60
2018,07,07,10,38,167.90
2018,07,07,10,39,171.80
2018,07,07,10,40,180.80
2018,07,07,10,41,195.50
2018,07,07,10,42,210.90
2018,07,07,10,43,228.70
2018,07,07,10,44,240.10
2018,07,07,10,45,248.80
2018,07,07,10,46,260.80
2018,07,07,10,47,272.00
2018,07,07,10,48,282.00
2018,07,07,10,49,288.20
2018,07,07,10,50,293.20
2018,07,07,10,51,300.90
2018,07,07,10,52,309.50
2018,07,07,10,53,319.00
2018,07,07,10,54,329.80
2018,07,07,10,55,371.40
2018,07,07,10,56,432.50
2018,07,07,10,57,449.30
2018,07,07,10,58,489.80
2018,07,07,10,59,528.30
2018,07,07,11,00,545.70
2018,07,07,11,01,540.50
2018,07,07,11,02,542.90
2018,07,07,11,03,529.40
2018,07,07,11,04,506.00
2018,07,07,11,05,491.20
2018,07,07,11,06,477.60
2018,07,07,11,07,443.10
2018,07,07,11,08,439.60
2018,07,07,11,09,431.90
2018,07,07,11,10,480.50
2018,07,07,11,11,511.10
2018,07,07,11,12,534.80
2018,07,07,11,13,544.50
2018,07,07,11,14,600.20
2018,07,07,11,15,635.00
2018,07,07,11,16,745.40
2018,07,07,11,17,800.00
2018,07,07,11,18,705.00
2018,07,07,11,19,745.20
2018,07,07,11,20,902.50
2018,07,07,11,21,969.50
2018,07,07,11,22,970.00
2018,07,07,11,23,829.60
2018,07,07,11,24,713.50
2018,07,07,11,25,683.00
2018,07,07,11,26,771.20
2018,07,07,11,27,721.20
2018,07,07,11,28,722.00
2018,07,07,11,29,700.70
2018,07,07,11,30,691.20
2018,07,07,11,31,728.00
2018,07,07,11,32,728.00
2018,07,07,11,33,728.00
2018,07,07,11,34,577.70
2018,07,07,11,35,588.60
2018,07,07,11,36,837.00
2018,07,07,11,37,777.90
2018,07,07,11,38,613.50
2018,07,07,11,39,570.00
2018,07,07,11,40,555.20
2018,07,07,11,41,546.40
2018,07,07,11,42,578.60
2018,07,07,11,43,581.30
2018,07,07,11,44,567.20
2018,07,07,11,45,608.80
2018,07,07,11,46,666.60
2018,07,07,11,47,680.60
2018,07,07,11,48,656.00
2018,07,07,11,49,656.00
2018,07,07,11,50,487.20
2018,07,07,11,51,403.80
2018,07,07,11,52,370.10
2018,07,07,11,53,344.80
2018,07,07,11,54,329.90
2018,07,07,11,55,324.20
2018,07,07,11,56,325.80
2018,07,07,11,57,331.90
2018,07,07,11,58,337.50
2018,07,07,11,59,346.30
2018,07,07,12,00,357.90
2018,07,07,12,01,369.90
2018,07,07,12,02,379.40
2018,07,07,12,03,387.10
2018,07,07,12,04,393.70
2018,07,07,12,05,397.60
2018,07,07,12,06,400.30
2018,07,07,12,07,403.20
2018,07,07,12,08,404.00
2018,07,07,12,09,403.90
2018,07,07,12,10,401.40
2018,07,07,12,11,403.80
2018,07,07,12,12,407.80
2018,07,07,12,13,409.60
2018,07,07,12,14,410.90
2018,07,07,12,15,413.00
2018,07,07,12,16,413.00
2018,07,07,12,17,419.30
2018,07,07,12,18,427.90
2018,07,07,12,19,435.60
2018,07,07,12,20,434.60
2018,07,07,12,21,436.80
2018,07,07,12,22,439.60
2018,07,07,12,23,439.80
2018,07,07,12,24,438.30
2018,07,07,12,25,438.00
2018,07,07,12,26,437.90
2018,07,07,12,27,435.40
2018,07,07,12,28,431.20
2018,07,07,12,29,427.60
2018,07,07,12,30,422.10
2018,07,07,12,31,414.10
2018,07,07,12,32,406.50
2018,07,07,12,33,400.20
2018,07,07,12,34,394.50
2018,07,07,12,35,390.10
2018,07,07,12,36,388.40
2018,07,07,12,37,392.10
2018,07,07,12,38,400.30
2018,07,07,12,39,410.50
2018,07,07,12,40,419.20
2018,07,07,12,41,425.50
2018,07,07,12,42,430.20
2018,07,07,12,43,431.00
2018,07,07,12,44,426.50
2018,07,07,12,45,421.60
2018,07,07,12,46,421.50
2018,07,07,12,47,429.40
2018,07,07,12,48,440.50
2018,07,07,12,49,448.20
2018,07,07,12,50,447.00
2018,07,07,12,51,439.20
2018,07,07,12,52,427.70
2018,07,07,12,53,431.30
2018,07,07,12,54,445.90
2018,07,07,12,55,458.80
2018,07,07,12,56,492.50
2018,07,07,12,57,540.00
2018,07,07,12,58,626.10
2018,07,07,12,59,600.70
2018,07,07,13,00,648.40
2018,07,07,13,01,606.40
2018,07,07,13,02,604.20
2018,07,07,13,03,575.00
2018,07,07,13,04,669.70
2018,07,07,13,05,800.00
2018,07,07,13,06,697.40
2018,07,07,13,07,634.00
2018,07,07,13,08,652.00
2018,07,07,13,09,630.70
2018,07,07,13,10,594.30
2018,07,07,13,11,559.50
2018,07,07,13,12,531.50
2018,07,07,13,13,520.20
2018,07,07,13,14,504.90
2018,07,07,13,15,492.80
2018,07,07,13,16,481.00
2018,07,07,13,17,470.40
2018,07,07,13,18,462.00
2018,07,07,13,19,458.60
2018,07,07,13,20,457.50
2018,07,07,13,21,459.00
2018,07,07,13,22,461.60
2018,07,07,13,23,466.40
2018,07,07,13,24,468.70
2018,07,07,13,25,468.20
2018,07,07,13,26,466.20
2018,07,07,13,27,466.30
2018,07,07,13,28,468.60
2018,07,07,13,29,472.20
2018,07,07,13,30,476.40
2018,07,07,13,31,480.50
2018,07,07,13,32,487.50
2018,07,07,13,33,500.50
2018,07,07,13,34,522.90
2018,07,07,13,35,567.50
2018,07,07,13,36,604.00
2018,07,07,13,37,614.40
2018,07,07,13,38,580.10
2018,07,07,13,39,532.50
2018,07,07,13,40,512.80
2018,07,07,13,41,501.70
2018,07,07,13,42,496.60
2018,07,07,13,43,494.20
2018,07,07,13,44,490.00
2018,07,07,13,45,488.00
2018,07,07,13,46,479.40
2018,07,07,13,47,478.90
2018,07,07,13,48,481.60
2018,07,07,13,49,487.40
2018,07,07,13,50,494.20
2018,07,07,13,51,501.60
2018,07,07,13,52,503.90
2018,07,07,13,53,502.40
2018,07,07,13,54,497.20
2018,07,07,13,55,488.90
2018,07,07,13,56,479.40
2018,07,07,13,57,471.10
2018,07,07,13,58,464.10
2018,07,07,13,59,462.00
2018,07,07,14,00,453.00
2018,07,07,14,01,445.50
2018,07,07,14,02,439.60
2018,07,07,14,03,431.90
2018,07,07,14,04,425.00
2018,07,07,14,05,419.50
2018,07,07,14,06,414.80
2018,07,07,14,07,409.50
2018,07,07,14,08,404.00
2018,07,07,14,09,396.00
2018,07,07,14,10,387.50
2018,07,07,14,11,381.80
2018,07,07,14,12,376.70
2018,07,07,14,13,372.70
2018,07,07,14,14,368.80
2018,07,07,14,15,365.00
2018,07,07,14,16,361.00
2018,07,07,14,17,355.80
2018,07,07,14,18,352.00
2018,07,07,14,19,349.20
2018,07,07,14,20,345.20
2018,07,07,14,21,342.20
2018,07,07,14,22,339.60
2018,07,07,14,23,336.80
2018,07,07,14,24,333.30
2018,07,07,14,25,329.60
2018,07,07,14,26,325.20
2018,07,07,14,27,321.80
2018,07,07,14,28,319.00
2018,07,07,14,29,315.10
2018,07,07,14,30,311.30
2018,07,07,14,31,308.50
2018,07,07,14,32,304.10
2018,07,07,14,33,299.90
2018,07,07,14,34,295.60
2018,07,07,14,35,291.90
2018,07,07,14,36,286.40
2018,07,07,14,37,282.50
2018,07,07,14,38,280.00
2018,07,07,14,39,276.20
2018,07,07,14,40,272.40
2018,07,07,14,41,268.40
2018,07,07,14,42,264.80
2018,07,07,14,43,258.60
2018,07,07,14,44,254.50
2018,07,07,14,45,249.20
2018,07,07,14,46,245.40
2018,07,07,14,47,244.80
2018,07,07,14,48,246.00
2018,07,07,14,49,248.40
2018,07,07,14,50,250.70
2018,07,07,14,51,251.00
2018,07,07,14,52,252.70
2018,07,07,14,53,250.90
2018,07,07,14,54,249.00
2018,07,07,14,55,245.30
2018,07,07,14,56,242.60
2018,07,07,14,57,241.00
2018,07,07,14,58,242.30
2018,07,07,14,59,246.80
2018,07,07,15,00,253.90
2018,07,07,15,01,264.20
2018,07,07,15,02,272.00
2018,07,07,15,03,277.30
2018,07,07,15,04,281.80
2018,07,07,15,05,283.90
2018,07,07,15,06,286.10
2018,07,07,15,07,287.70
2018,07,07,15,08,289.60
2018,07,07,15,09,292.00
2018,07,07,15,10,294.00
2018,07,07,15,11,294.00
2018,07,07,15,12,293.40
2018,07,07,15,13,289.90
2018,07,07,15,14,287.00
2018,07,07,15,15,285.70
2018,07,07,15,16,285.00
2018,07,07,15,17,285.00
2018,07,07,15,18,286.90
2018,07,07,15,19,287.20
2018,07,07,15,20,288.50
2018,07,07,15,21,291.80
2018,07,07,15,22,296.80
2018,07,07,15,23,301.90
2018,07,07,15,24,308.50
2018,07,07,15,25,317.80
2018,07,07,15,26,326.30
2018,07,07,15,27,336.70
2018,07,07,15,28,344.90
2018,07,07,15,29,354.10
2018,07,07,15,30,362.20
2018,07,07,15,31,373.50
2018,07,07,15,32,387.20
2018,07,07,15,33,400.40
2018,07,07,15,34,415.20
2018,07,07,15,35,432.10
2018,07,07,15,36,451.60
2018,07,07,15,37,482.00
2018,07,07,15,38,505.80
2018,07,07,15,39,521.70
2018,07,07,15,40,498.50
2018,07,07,15,41,508.00
2018,07,07,15,42,508.00
2018,07,07,15,43,514.00
2018,07,07,15,44,508.00
2018,07,07,15,45,550.00
2018,07,07,15,46,577.00
2018,07,07,15,47,611.20
2018,07,07,15,48,560.00
2018,07,07,15,49,553.90
2018,07,07,15,50,559.20
2018,07,07,15,51,489.80
2018,07,07,15,52,437.90
2018,07,07,15,53,397.60
2018,07,07,15,54,361.80
2018,07,07,15,55,339.80
2018,07,07,15,56,323.20
2018,07,07,15,57,305.10
2018,07,07,15,58,290.70
2018,07,07,15,59,285.80
2018,07,07,16,00,283.30
2018,07,07,16,01,278.70
2018,07,07,16,02,273.20
2018,07,07,16,03,267.80
2018,07,07,16,04,263.30
2018,07,07,16,05,261.00
2018,07,07,16,06,258.80
2018,07,07,16,07,257.30
2018,07,07,16,08,252.10
2018,07,07,16,09,246.50
2018,07,07,16,10,238.80
2018,07,07,16,11,237.40
2018,07,07,16,12,239.00
2018,07,07,16,13,240.70
2018,07,07,16,14,244.50
2018,07,07,16,15,248.40
2018,07,07,16,16,253.80
2018,07,07,16,17,263.50
2018,07,07,16,18,268.90
2018,07,07,16,19,271.50
2018,07,07,16,20,275.80
2018,07,07,16,21,284.10
2018,07,07,16,22,294.00
2018,07,07,16,23,300.10
2018,07,07,16,24,298.40
2018,07,07,16,25,293.20
2018,07,07,16,26,288.60
2018,07,07,16,27,284.50
2018,07,07,16,28,278.80
2018,07,07,16,29,278.00
2018,07,07,16,30,279.30
2018,07,07,16,31,280.00
2018,07,07,16,32,277.20
2018,07,07,16,33,274.50
2018,07,07,16,34,272.30
2018,07,07,16,35,264.40
2018,07,07,16,36,251.60
2018,07,07,16,37,242.50
2018,07,07,16,38,235.20
2018,07,07,16,39,229.20
2018,07,07,16,40,222.50
2018,07,07,16,41,215.40
2018,07,07,16,42,208.50
2018,07,07,16,43,202.80
2018,07,07,16,44,196.90
2018,07,07,16,45,189.00
2018,07,07,16,46,183.90
2018,07,07,16,47,179.90
2018,07,07,16,48,177.10
2018,07,07,16,49,176.00
2018,07,07,16,50,176.00
2018,07,07,16,51,176.00
2018,07,07,16,52,176.00
2018,07,07,16,53,174.00
2018,07,07,16,54,174.00
2018,07,07,16,55,174.70
2018,07,07,16,56,177.30
2018,07,07,16,57,182.10
2018,07,07,16,58,188.20
2018,07,07,16,59,192.20
2018,07,07,17,00,198.10
2018,07,07,17,01,203.90
2018,07,07,17,02,207.40
2018,07,07,17,03,211.80
2018,07,07,17,04,215.40
2018,07,07,17,05,220.20
2018,07,07,17,06,226.30
2018,07,07,17,07,232.20
2018,07,07,17,08,238.00
2018,07,07,17,09,242.40